Location: Newark
(45.8667°N, 9.7333°E)
Time: 16:50:00
(UTC+00:00)

Altair - Visible Passes

Search period start: 21 January 2020 00:00
Search period end: 31 January 2020 00:00
Orbit: 1502 x 1682 km, 47.2° (Epoch: 20 January)

Date Brightness Start Highest point End Pass type
(mag) Time Alt. Az. Time Alt. Az. Time Alt. Az.
22 Jan 10.5 17:29:54 10° WSW 17:31:50 11° WSW 17:33:46 10° SW visible
23 Jan 10.5 17:03:15 10° W 17:06:51 12° WSW 17:10:25 10° SW visible
24 Jan 10.0 06:14:01 10° S 06:21:14 23° SE 06:28:33 10° E visible
24 Jan 10.4 16:37:13 10° W 16:41:52 14° WSW 16:46:27 10° SSW visible
25 Jan 10.0 05:49:25 10° S 05:56:12 21° SE 06:03:05 10° E visible
26 Jan 10.0 05:24:53 10° SSE 05:31:10 19° SE 05:37:32 10° E visible
27 Jan 9.9 05:00:28 10° SSE 05:06:09 17° SE 05:11:53 10° E visible
28 Jan 9.9 04:36:11 10° SSE 04:41:09 15° ESE 04:46:08 10° E visible
29 Jan 10.0 04:12:07 10° SE 04:16:09 13° ESE 04:20:12 10° E visible
29 Jan 8.8 06:09:38 10° SSW 06:18:54 46° SE 06:28:21 10° ENE visible
30 Jan 10.0 03:48:28 10° SE 03:51:09 11° ESE 03:53:52 10° ESE visible
30 Jan 8.9 05:44:42 10° SSW 05:53:47 43° SE 06:03:05 10° ENE visible
